Location: Drawsko Pomorskie
(53.5317°N, 15.8111°E)
Time: 21:44:24
(UTC+01:00)

Envisat - Pass Details

Date: 22 October 2019
Orbit: 764 x 766 km, 98.1° (Epoch: 18 November)

Event Time Altitude Azimuth Distance (km) Brightness Sun altitude
Rises 19:57:06 0° 200° (SSW) 3,224 6.4 -20.2°
Reaches altitude 10° 19:59:46 10° 213° (SSW) 2,303 5.8 -20.6°
Maximum altitude 20:03:57 25° 269° (W) 1,500 5.3 -21.2°
Drops below altitude 10° 20:08:10 10° 325° (NW) 2,316 6.1 -21.8°
Sets 20:10:52 0° 338° (NNW) 3,247 6.7 -22.2°
